Theta_e
341 344 342 345 344 343 344 345 345 344 343 342 343 341 338 336 334 332 334 335 335 337 335 336 338 339 338 338 337 335 328 321 322 323 323 327 330 331 331 331 328 329 331
342 344 343 341 343 344 344 344 343 343 342 342 340 339 337 335 332 332 332 334 336 336 337 336 338 337 339 337 335 330 322 322 323 323 323 326 329 329 329 325 330 327 329
342 342 342 342 342 342 344 343 342 342 342 341 340 336 335 334 331 330 330 332 333 335 338 340 339 339 335 332 328 325 324 323 324 324 324 328 328 327 326 327 331 331 324
342 342 342 342 342 343 343 342 341 341 341 341 337 336 335 332 329 329 330 331 333 333 335 335 333 333 330 329 329 330 329 327 327 328 327 329 331 333 330 326 325 328 329
342 342 342 342 342 342 341 341 340 340 340 340 338 337 335 330 330 330 331 331 333 333 333 332 330 328 324 329 332 332 329 328 329 328 328 329 332 333 333 334 333 329 326
342 342 341 342 341 340 338 335 336 338 337 336 338 338 334 331 330 330 330 330 331 331 331 327 323 321 324 328 331 329 328 329 329 328 328 329 334 334 334 334 335 334 335
342 342 341 341 339 336 335 333 334 338 339 339 340 337 335 333 331 330 327 328 328 330 328 326 325 327 329 332 330 328 328 329 329 328 328 329 332 332 331 332 334 334 334
341 341 341 340 334 333 332 329 333 335 338 339 339 337 336 335 334 328 323 324 329 332 332 332 332 331 331 330 327 326 327 328 328 329 329 329 329 330 329 332 332 331 330
341 341 340 337 334 333 332 330 335 337 339 340 339 336 336 334 335 332 327 324 328 331 332 332 331 330 329 326 324 324 324 325 327 326 326 324 327 329 332 332 330 328 327
341 340 340 337 335 334 333 328 335 336 335 337 336 335 334 334 333 333 330 328 328 330 331 331 331 329 326 321 321 320 320 323 323 320 318 321 328 331 331 330 328 326 323
343 340 340 338 336 335 334 330 331 337 333 330 331 332 332 333 334 334 333 329 327 329 331 332 330 325 321 318 316 315 316 317 316 315 318 327 330 328 327 327 325 323 321
341 342 342 340 338 337 335 333 328 336 334 331 329 331 332 331 331 332 334 330 327 330 330 329 329 323 320 318 315 312 312 311 312 314 324 325 328 325 324 321 322 320 319
342 341 342 342 339 339 337 335 330 331 334 332 330 330 330 330 332 334 335 331 330 329 330 329 325 319 318 317 314 311 309 309 311 315 326 323 325 322 320 319 319 317 316
343 342 342 342 341 339 339 336 333 328 332 333 330 330 330 330 333 335 334 332 330 327 329 328 319 317 314 311 308 306 306 308 311 321 324 323 322 320 318 316 314 313 313
342 342 343 342 341 342 340 338 335 331 328 328 330 329 329 329 330 332 332 331 330 327 329 325 318 315 311 308 306 304 305 307 310 314 319 321 319 317 315 313 311 310 310
343 342 342 341 341 341 342 340 338 334 331 328 327 330 330 329 329 329 331 331 330 326 328 320 317 313 309 307 304 303 304 307 310 310 312 315 314 312 310 309 308 308 308
334 341 343 343 341 342 343 341 340 338 335 331 327 325 329 329 329 328 329 331 330 326 326 321 316 311 308 305 303 302 303 305 308 308 308 309 309 306 307 306 306 306 306
319 331 338 343 344 344 345 341 341 340 338 335 331 327 324 327 328 328 328 330 329 326 327 320 314 310 307 304 302 302 302 303 306 306 305 303 302 301 301 301 302 301 301
317 317 324 334 340 342 344 341 341 341 340 338 335 331 327 324 325 324 324 328 329 327 328 321 314 310 306 302 301 301 301 301 304 305 303 301 300 300 299 298 296 296 296
316 316 316 318 327 334 340 341 340 339 339 339 338 334 331 330 329 327 326 328 328 328 324 317 312 308 304 301 300 299 300 300 302 304 303 301 300 299 298 297 296 295 295
315 316 316 316 316 327 340 339 336 338 337 338 338 337 334 333 331 332 330 328 327 328 326 315 309 308 302 300 299 300 301 300 300 302 302 300 299 299 298 296 295 295 295
313 314 315 315 315 318 335 337 338 337 337 337 338 338 336 334 333 332 332 328 326 327 320 314 313 306 301 301 300 299 297 298 299 299 299 299 299 298 297 296 295 294 294
310 312 313 315 316 315 326 334 337 337 335 335 335 336 337 336 335 334 333 330 325 327 325 317 315 312 304 300 300 300 295 297 296 296 298 299 299 298 296 294 294 294 293
309 311 311 312 313 315 316 333 335 335 334 333 334 336 336 336 335 334 333 331 326 325 321 321 316 313 308 303 298 298 298 298 294 293 294 295 296 295 294 294 293 292 292
307 307 308 310 312 313 315 326 333 334 333 333 333 333 333 334 335 334 332 329 326 325 321 319 314 311 306 305 302 296 295 294 294 292 291 292 293 294 294 293 292 291 290
311 312 311 308 309 311 312 315 328 332 333 333 332 332 331 330 331 332 331 329 326 322 320 319 315 312 306 305 304 303 300 296 293 292 290 290 291 293 293 292 292 290 290
Wind_Speed
16 23 19 19 18 17 16 16 17 17 16 14 14 13 11 9 8 7 7 8 8 8 7 9 10 12 12 12 10 10 8 8 9 9 10 11 11 10 9 9 7 6 5
24 24 20 18 17 17 17 16 15 15 15 14 13 10 10 9 7 7 8 8 9 10 7 10 10 12 14 12 10 8 9 10 10 9 10 11 12 9 8 9 11 10 8
30 25 22 20 19 17 17 16 15 15 15 14 13 10 9 9 9 10 11 11 11 9 11 15 12 15 12 10 8 8 10 10 10 10 9 11 12 8 7 7 7 5 6
31 25 23 22 21 19 18 17 16 16 15 14 13 12 11 10 10 11 12 12 13 11 10 11 11 10 10 8 10 11 10 9 9 10 10 10 11 8 8 6 5 4 3
29 26 25 23 21 19 18 17 16 15 14 15 14 14 12 11 11 12 12 12 13 11 9 9 9 8 7 9 10 9 7 7 7 8 10 9 8 8 7 7 5 4 2
28 26 24 22 21 18 16 15 16 15 15 14 16 15 13 12 12 12 12 12 11 9 8 8 8 9 9 9 9 7 6 5 3 6 8 7 9 8 9 9 8 9 8
28 25 24 22 19 17 15 14 15 15 16 17 17 14 13 12 11 11 10 11 11 10 9 9 10 10 10 9 7 4 4 3 4 8 6 7 8 7 8 9 12 14 15
28 26 24 21 19 17 14 13 14 15 16 18 18 15 13 12 11 10 10 9 9 9 8 8 9 8 7 6 4 4 4 4 6 6 5 6 7 7 8 9 11 13 13
26 27 24 22 19 16 14 14 15 16 15 19 18 14 13 12 10 9 8 8 8 8 9 8 8 6 5 4 5 5 5 6 6 7 6 6 7 7 8 10 13 13 13
25 26 24 23 20 18 16 15 16 15 16 16 16 16 15 13 10 7 7 7 7 8 8 8 6 5 5 4 4 6 6 7 6 6 6 7 6 8 11 11 12 11 12
22 26 25 24 21 20 18 16 17 17 17 16 17 18 17 15 13 11 9 8 7 7 7 6 5 5 5 3 4 5 4 4 4 4 7 9 10 11 10 10 11 11 11
20 23 26 25 24 22 20 19 19 20 20 19 19 19 17 14 14 14 12 9 7 8 7 6 5 6 4 2 2 2 2 2 3 6 9 8 11 10 10 5 9 10 10
21 23 25 26 25 25 23 21 21 22 22 21 21 21 18 14 12 16 15 12 10 10 9 8 7 6 5 4 2 1 1 3 6 8 10 7 9 8 10 7 9 9 9
22 24 23 26 25 28 27 26 25 25 25 24 24 22 20 17 15 17 17 15 12 11 11 9 9 6 5 4 2 2 2 4 8 11 10 9 10 9 9 8 8 8 7
19 21 26 27 28 27 30 29 28 27 27 27 27 26 24 21 19 19 18 16 14 13 11 11 10 7 6 5 4 3 3 6 9 9 10 9 9 10 9 8 7 7 7
22 22 25 28 30 30 31 33 31 30 29 28 28 29 27 25 22 21 20 19 16 15 13 12 11 8 7 5 4 4 5 8 9 9 9 8 7 8 8 7 7 7 6
27 31 28 28 28 31 30 34 33 33 32 31 31 29 30 28 26 23 23 21 18 17 16 14 13 11 8 7 6 5 6 8 9 9 8 8 8 7 8 7 6 6 6
20 27 32 32 31 31 31 33 35 35 34 34 33 31 31 31 29 28 27 24 21 20 18 17 15 12 9 8 8 8 8 9 10 10 9 8 8 8 6 5 5 5 5
24 25 28 32 34 35 35 34 37 37 36 36 34 33 33 32 31 31 29 26 25 23 21 20 17 14 11 9 9 8 8 9 10 11 10 8 8 7 6 5 4 2 2
22 25 27 28 31 34 35 34 34 35 36 38 37 36 34 34 32 31 30 27 28 26 24 23 21 16 12 11 10 8 7 8 11 12 11 10 9 8 7 5 4 2 2
21 21 24 28 33 34 28 27 27 30 36 38 41 38 37 35 36 34 33 29 31 30 30 28 22 16 13 14 13 7 4 6 10 12 12 12 11 10 9 8 7 6 6
26 26 24 24 29 35 32 33 27 30 29 40 41 40 40 38 37 38 37 36 36 35 34 31 28 21 14 18 8 6 1 2 8 11 13 14 13 12 11 10 8 7 8
23 27 26 23 21 29 34 34 28 24 25 28 33 38 41 41 38 40 41 40 39 40 39 37 33 29 22 22 15 7 2 4 3 7 11 14 14 14 13 11 9 9 10
22 20 21 24 23 23 30 32 31 28 25 30 37 44 42 42 41 41 42 42 42 45 41 40 37 34 27 21 20 17 7 6 4 1 7 11 13 15 14 11 9 9 9
17 20 20 20 24 24 24 33 36 30 29 27 33 35 39 43 44 42 43 42 44 47 44 42 40 37 30 26 22 13 11 8 7 3 3 6 14 15 15 12 10 9 8
18 16 14 12 18 19 20 25 33 34 31 30 30 34 37 41 45 45 44 46 47 47 46 43 40 37 33 27 27 23 20 9 8 5 2 3 6 10 16 15 12 10 9
Wind_Direction
177 166 175 166 161 161 157 156 154 154 149 144 133 131 129 125 122 118 115 111 102 105 124 148 145 139 125 112 102 95 88 85 86 78 78 77 73 76 78 77 82 85 75
165 163 170 167 166 163 161 163 163 161 160 144 139 139 127 128 124 117 117 113 107 109 130 145 144 137 120 109 100 90 87 92 87 85 80 78 74 73 73 86 71 67 88
161 165 168 169 167 165 167 168 169 167 161 153 149 152 138 131 126 124 127 125 122 121 80 103 120 106 108 102 95 97 102 95 88 86 89 80 74 67 75 90 69 57 79
161 165 170 170 169 172 168 167 169 166 164 157 153 151 149 136 129 126 129 131 129 139 115 100 108 104 98 95 97 103 103 98 94 90 93 82 79 69 68 57 61 70 108
165 169 171 172 173 175 177 176 175 176 170 163 161 157 151 139 131 127 128 132 138 133 124 118 113 107 103 101 106 110 105 95 100 109 87 72 82 68 54 37 41 44 64
169 172 169 175 178 174 170 172 175 177 179 176 169 160 154 145 137 131 129 129 130 126 118 112 111 110 109 102 109 120 118 102 90 125 101 72 69 58 48 36 35 35 46
171 172 171 179 176 174 175 178 177 175 178 181 172 165 160 151 143 138 133 129 126 124 122 117 113 110 107 104 111 119 119 93 100 133 113 94 72 58 47 53 61 62 58
173 172 175 181 177 180 180 179 174 167 183 182 179 171 169 164 154 148 142 137 131 128 117 118 114 110 106 106 109 109 112 98 116 132 110 94 72 56 55 80 70 63 54
176 174 177 181 182 185 184 181 175 174 180 177 181 182 179 177 172 160 152 146 141 136 132 131 119 123 109 105 101 101 112 126 112 110 109 94 79 72 84 87 80 71 62
181 181 183 185 187 189 190 188 182 187 190 191 193 188 187 188 188 190 175 162 156 151 153 138 139 145 132 117 106 106 108 117 115 109 103 97 98 94 90 86 81 74 66
185 190 191 190 193 195 195 195 189 194 197 193 189 189 194 197 200 199 209 182 174 160 151 162 159 153 146 120 110 112 121 124 125 115 110 113 109 98 87 81 83 78 73
190 196 199 199 200 201 201 200 195 197 203 202 203 203 204 210 214 211 209 196 188 166 189 172 171 171 174 178 143 125 129 129 126 124 126 128 113 98 92 91 83 80 81
193 198 203 207 210 207 208 205 203 203 206 208 209 210 210 213 216 206 203 199 196 189 191 188 184 182 176 197 228 218 145 133 132 133 136 140 113 106 97 106 92 90 85
201 205 204 206 210 213 213 212 210 206 209 211 211 211 212 210 202 195 201 203 203 201 198 197 192 189 191 197 218 240 175 148 142 142 148 147 121 114 109 107 101 94 85
215 212 214 213 216 217 217 217 216 214 214 216 216 215 215 213 207 202 203 206 206 208 207 203 198 197 196 201 213 208 190 164 156 153 155 167 140 121 118 112 101 87 76
219 219 218 220 219 221 224 222 221 220 221 222 221 221 219 219 215 213 209 209 208 208 209 204 207 207 211 216 221 194 176 169 166 161 166 165 161 137 123 113 103 87 81
235 231 219 220 219 220 221 226 225 226 226 226 225 224 223 222 220 220 217 212 210 208 204 207 205 208 214 212 210 189 181 180 176 172 170 170 167 158 131 115 110 93 83
246 238 236 228 223 223 223 227 229 230 230 230 230 226 225 223 222 224 221 216 213 208 206 208 208 208 211 208 207 193 181 187 184 183 178 171 170 167 161 128 116 93 73
247 241 238 234 232 233 228 228 232 233 232 233 233 231 226 224 221 221 221 221 214 209 209 210 208 213 208 201 197 194 188 189 192 192 188 183 180 181 176 161 163 148 73
259 248 242 240 234 236 233 225 228 231 235 235 233 232 231 226 223 219 219 219 210 208 206 207 210 207 207 194 180 182 192 196 198 198 197 195 197 198 197 204 205 226 279
254 251 246 239 239 233 216 211 216 218 227 231 235 233 232 230 224 220 218 215 208 207 210 208 202 206 193 184 158 157 165 191 198 199 207 206 208 212 215 220 234 258 273
257 251 247 244 237 234 223 217 213 221 226 231 235 234 232 230 227 222 221 212 211 207 209 208 208 197 195 188 170 137 157 205 205 206 211 217 218 216 219 222 238 261 286
265 258 249 245 242 231 227 226 214 218 226 220 223 231 231 230 228 225 225 216 213 211 211 210 209 209 191 193 191 162 121 216 155 208 212 215 216 213 212 218 240 269 289
281 271 260 248 243 236 228 221 216 214 213 220 223 230 230 228 226 226 226 221 216 215 214 214 212 211 207 189 196 215 207 160 163 191 213 208 208 207 208 223 248 276 285
323 308 288 255 240 238 227 222 226 221 227 230 229 231 229 225 224 225 225 221 219 218 219 216 214 212 211 201 190 176 194 191 175 135 188 207 214 210 219 239 256 268 265
360 357 345 307 265 240 231 223 226 228 227 228 227 227 231 228 223 222 223 223 221 219 218 219 219 215 212 212 206 201 183 171 191 161 135 184 200 216 230 240 254 249 249